Location: 22
(39.7117°N, 89.5929°W)
Time: 04:51:08
(UTC-05:00)

Vanguard 1 Rocket - Pass Details

Date: 16 February 2023
Orbit: 652 x 4223 km, 34.3° (Epoch: 26 March)

Event Time Altitude Azimuth Distance (km) Brightness Sun altitude
Rises 17:50:21 0° 262° (W) 6,560 14.7 -3.6°
Reaches altitude 10° 18:04:15 10° 223° (SW) 6,738 12.7 -6.2°
Maximum altitude 18:04:39 10° 222° (SW) 6,763 12.7 -6.3°
Drops below altitude 10° 18:05:03 10° 221° (SW) 6,790 12.7 -6.3°
Sets 18:23:10 0° 183° (S) 8,451 12.5 -9.8°
